Weather History for Key West, FL

Change the Weather History Date:

Monday, June 24, 2013

  Actual Average Record
Temperature  
Mean Temperature 84 °F 84 °F  
Max Temperature 89 °F 88 °F 94 °F (1950)
Min Temperature 78 °F 79 °F 71 °F (1938)
Degree Days  
Heating Degree Days 0 0  
Month to date heating degree days 0 0  
Since 1 June heating degree days 0 0  
Since 1 July heating degree days 28 73  
Cooling Degree Days 19 19  
Month to date cooling degree days 439 436  
Year to date cooling degree days 2068 1866  
Since 1 June cooling degree days 439 436  
Growing Degree Days 34 (Base 50)    
Moisture  
Dew Point 73 °F    
Average Humidity 69    
Maximum Humidity 79    
Minimum Humidity 59    
Precipitation  
Precipitation 0.07 in 0.13 in 2.65 in (1976)
Month to date precipitation 7.23 3.29  
Year to date precipitation 22.02 13.92  
Snow  
Snow 0.00 in - - ()
Month to date snowfall 0.0  
Since 1 June snowfall 0.0  
Since 1 July snowfall 0.0  
Snow Depth 0.00 in    
Sea Level Pressure  
Sea Level Pressure 30.09 in    
Wind  
Wind Speed 12 mph (ESE)    
Max Wind Speed 20 mph    
Max Gust Speed 26 mph    
Visibility 10 miles    
Events Rain    
T = Trace of Precipitation, MM = Missing Value Source: NWS Daily Summary

Daily Weather History Graph

Daily Weather History Graph

Search for Another Location

Airport:

Trip Planner

Search our weather history database for the weather conditions in past years. The results will help you decide how hot, cold, wet, or windy it might be!

Date:

Astronomy

Jun. 24, 2013 Rise Set
Actual Time 6:39 AM EDT 8:19 PM EDT
Civil Twilight 6:14 AM EDT 8:44 PM EDT
Nautical Twilight 5:43 AM EDT 9:15 PM EDT
Astronomical Twilight 5:11 AM EDT 9:47 PM EDT
Moon 9:34 PM EDT (6/24) 7:55 AM EDT (6/24)
Length of Visible Light 14h 30m
Length of Day
13h 39m
Full, 98% of the Moon is Illuminated
Jun 24
Full
Jun 30
Last Quarter
Jul 8
New
Jul 15
First Quarter
Jul 22
Full

Hourly Weather History & Observations

Time (EDT) Temp. Heat Index Dew Point Humidity Pressure Visibility Wind Dir Wind Speed Gust Speed Precip Events Conditions
12:53 AM 84.0 °F 90.2 °F 73.0 °F 69% 30.10 in 10.0 mi East 16.1 mph 20.7 mph N/A   Scattered Clouds
1:53 AM 84.0 °F 90.2 °F 73.0 °F 69% 30.09 in 10.0 mi East 12.7 mph - N/A   Partly Cloudy
2:53 AM 79.0 °F - 72.0 °F 79% 30.09 in 10.0 mi ESE 9.2 mph - 0.07 in   Scattered Clouds
3:53 AM 80.1 °F 84.5 °F 73.9 °F 81% 30.07 in 10.0 mi SE 5.8 mph - N/A   Clear
4:53 AM 81.0 °F 85.2 °F 72.0 °F 74% 30.07 in 10.0 mi SE 13.8 mph 23.0 mph 0.00 in Rain Light Rain
5:53 AM 82.0 °F 87.9 °F 73.9 °F 76% 30.07 in 10.0 mi ESE 10.4 mph - 0.00 in   Partly Cloudy
6:18 AM 82.4 °F 88.2 °F 73.4 °F 74% 30.07 in 10.0 mi East 6.9 mph - N/A   Mostly Cloudy
6:39 AM 82.4 °F 88.2 °F 73.4 °F 74% 30.08 in 10.0 mi ESE 10.4 mph - N/A   Partly Cloudy
6:53 AM 82.0 °F 86.7 °F 72.0 °F 71% 30.08 in 10.0 mi SE 10.4 mph - N/A   Scattered Clouds
7:53 AM 82.9 °F 88.8 °F 73.0 °F 72% 30.09 in 10.0 mi ESE 12.7 mph - N/A   Clear
8:53 AM 84.0 °F 91.2 °F 73.9 °F 72% 30.11 in 10.0 mi ESE 12.7 mph - N/A   Clear
9:53 AM 86.0 °F 95.1 °F 75.0 °F 70% 30.12 in 10.0 mi East 13.8 mph - N/A   Partly Cloudy
10:53 AM 87.1 °F 95.4 °F 73.9 °F 65% 30.15 in 10.0 mi East 11.5 mph 18.4 mph N/A   Partly Cloudy
11:53 AM 88.0 °F 97.5 °F 75.0 °F 65% 30.14 in 10.0 mi ESE 12.7 mph - N/A   Clear
12:53 PM 88.0 °F 97.5 °F 75.0 °F 65% 30.14 in 10.0 mi East 16.1 mph - N/A   Clear
1:53 PM 88.0 °F 96.5 °F 73.9 °F 63% 30.12 in 10.0 mi East 15.0 mph - N/A   Clear
2:53 PM 87.1 °F 97.3 °F 75.9 °F 69% 30.10 in 10.0 mi ESE 13.8 mph - N/A   Clear
3:53 PM 87.1 °F 93.6 °F 72.0 °F 61% 30.09 in 10.0 mi ESE 11.5 mph - N/A   Clear
4:53 PM 88.0 °F 96.5 °F 73.9 °F 63% 30.08 in 10.0 mi ESE 15.0 mph - N/A   Scattered Clouds
5:53 PM 87.1 °F 93.6 °F 72.0 °F 61% 30.07 in 10.0 mi ESE 12.7 mph - N/A   Clear
6:53 PM 86.0 °F 91.5 °F 71.1 °F 61% 30.06 in 10.0 mi East 13.8 mph - N/A   Clear
7:53 PM 84.9 °F 90.7 °F 72.0 °F 65% 30.06 in 10.0 mi ESE 15.0 mph 18.4 mph N/A   Clear
8:53 PM 84.0 °F 89.6 °F 72.0 °F 67% 30.06 in 10.0 mi East 13.8 mph - N/A   Clear
9:53 PM 84.0 °F 90.2 °F 73.0 °F 69% 30.08 in 10.0 mi East 12.7 mph - N/A   Partly Cloudy
10:53 PM 84.0 °F 91.2 °F 73.9 °F 72% 30.09 in 10.0 mi East 10.4 mph 19.6 mph N/A   Partly Cloudy
11:53 PM 84.0 °F 91.2 °F 73.9 °F 72% 30.11 in 10.0 mi East 13.8 mph - N/A   Partly Cloudy